[[{"header":{"parameterUnit":"m.s-1","parameterCategory":1,"la1":30.2991,"la2":30.254,"lo1":-89.0895,"lo2":-89.0444,"dy":0.0017,"dx":0.0017,"nx":28,"ny":28,"refTime":"2023-08-22T03:00:00:Z","depth":0,"parameterNumber":2,"parameterNumberName":"U-component_of_WINDS"},"data":[0,0,0,0,0,0,0,0,0,0,0,0,0,0,0,0,0,0,0,0,0,0,0,0,0,0,0,0,0,0,0,0,0,0,0,0,0,0,0,0,0,0,0,0,0,0,0,0,0,0,0,0,0,0,0,0,0,0,-0.5374,-0.5373,0,-0.5235,-0.5233,-0.5232,-0.5225,-0.5227,-0.5228,-0.523,-0.5086,-0.5081,-0.5075,0,0,0,0,0,0,0,0,0,0,0,0,0,-0.5635,-0.563,-0.5375,-0.5373,-0.5371,-0.5235,-0.5233,-0.5231,-0.5225,-0.5227,-0.5229,-0.5231,-0.5088,-0.5081,-0.5075,0,0,0,0,0,0,0,0,0,0,0,0,0,-0.5511,-0.5629,-0.5375,-0.5351,-0.5348,-0.5236,-0.5233,-0.5231,-0.5224,-0.5227,-0.5229,-0.5231,-0.509,-0.5082,-0.5074,-0.4975,0,0,-0.5049,-0.5046,0,0,0,0,0,0,0,0,-0.5518,-0.5502,-0.5357,-0.5353,-0.5349,-0.525,-0.5272,-0.5145,-0.5224,-0.5271,-0.523,-0.5233,-0.5138,-0.5127,-0.5095,-0.4969,-0.4962,-0.5049,-0.5044,-0.504,-0.5038,0,0,0,0,0,0,0,-0.5527,-0.5508,-0.5319,-0.5354,-0.535,-0.5348,-0.5333,-0.5248,-0.5193,-0.5267,-0.5266,-0.525,-0.5137,-0.5103,-0.5091,-0.496,-0.5049,-0.5042,-0.5037,-0.5034,-0.4748,-0.4745,0,0,0,0,0,0,-0.554,-0.5515,-0.5324,-0.5315,-0.5441,-0.5341,-0.5325,-0.5279,-0.5194,-0.5183,-0.5248,-0.525,-0.5115,-0.5101,-0.5086,-0.4966,-0.504,-0.5033,-0.5028,-0.4751,-0.4747,-0.4744,0,0,0,0,0,0,-0.5546,-0.5523,-0.5329,-0.5415,-0.539,-0.5334,-0.5283,-0.5275,-0.5241,-0.5179,-0.5169,-0.5224,-0.5117,-0.5098,-0.5003,-0.4961,-0.5029,-0.5022,-0.4754,-0.475,-0.4746,-0.4724,0,0,0,0,0,0,-0.5553,-0.5525,-0.5487,-0.5414,-0.5385,-0.5248,-0.528,-0.5271,-0.5227,-0.5229,-0.5153,-0.5143,-0.5117,-0.5016,-0.4996,-0.4951,-0.5016,-0.4758,-0.4752,-0.4747,-0.4729,-0.472,-0.4713,0,0,0,0,0,-0.5563,-0.5486,-0.5485,-0.5462,-0.5336,-0.5246,-0.523,-0.5201,-0.5224,-0.5185,-0.5146,-0.5146,-0.4969,-0.5006,-0.4983,-0.4936,-0.476,-0.4754,-0.4748,-0.4732,-0.4722,-0.4713,0,0,0,0,0,0,-0.5554,-0.5476,-0.5474,-0.5371,-0.5316,-0.5245,-0.5195,-0.5191,-0.5127,-0.5131,-0.5098,-0.5081,-0.4988,-0.4953,-0.4995,-0.4837,-0.4867,-0.4856,-0.4863,-0.4853,-0.4845,-0.4855,-0.5009,0,0,0,0,0,-0.5541,-0.5474,-0.5409,-0.5324,-0.5297,-0.5251,-0.521,-0.5194,-0.5134,-0.511,-0.5064,-0.5006,-0.4938,-0.4894,-0.4827,-0.4724,-0.4708,-0.4681,-0.4673,-0.4666,-0.4657,-0.4601,-0.4588,-0.4724,-0.4724,-0.4724,0,0,-0.5511,-0.546,-0.542,-0.5322,-0.5276,-0.5208,-0.5231,-0.5157,-0.5107,-0.5099,-0.5007,-0.4972,-0.4905,-0.4807,-0.4761,-0.4774,-0.4616,-0.4658,-0.4654,-0.4648,-0.4593,-0.4581,-0.4569,-0.472,-0.472,-0.4721,0,0,-0.5423,-0.5377,-0.5303,-0.5257,-0.5189,-0.516,-0.5142,-0.5072,-0.5049,-0.4957,-0.495,-0.489,-0.4772,-0.4726,-0.4687,-0.4584,-0.4581,-0.4563,-0.4521,-0.4467,-0.4456,-0.4446,-0.441,-0.4398,-0.4554,-0.4554,-0.4554,0,-0.5395,-0.5292,-0.5265,-0.5191,-0.5149,-0.5141,-0.5065,-0.5022,-0.4936,-0.4907,-0.4923,-0.4777,-0.4732,-0.4623,-0.4598,-0.4566,-0.4546,-0.4571,-0.446,-0.445,-0.4441,-0.4406,-0.4392,-0.4552,-0.4552,-0.4552,-0.4553,0,-0.5261,-0.519,-0.5138,-0.5056,-0.5007,-0.4933,-0.4895,-0.485,-0.4838,-0.4807,-0.4714,-0.466,-0.4583,-0.4556,-0.4543,-0.4446,-0.4456,-0.4467,-0.4496,-0.4426,-0.4393,-0.438,-0.4549,-0.455,-0.4551,-0.4551,0,0,-0.5161,-0.5067,-0.5048,-0.5011,-0.4937,-0.4881,-0.4808,-0.4733,-0.4695,-0.4637,-0.4574,-0.4477,-0.4487,-0.4442,-0.4425,-0.4377,-0.43,-0.4394,-0.4392,-0.4379,-0.4191,-0.4183,-0.4168,-0.4299,-0.4297,-0.4294,-0.4196,0,-0.5064,-0.4933,-0.4908,-0.4794,-0.4729,-0.4721,-0.4657,-0.4605,-0.4575,-0.4515,-0.4482,-0.4413,-0.4431,-0.4404,-0.4357,-0.432,-0.4262,-0.4326,-0.4241,-0.4238,-0.4258,-0.415,-0.4142,-0.4052,-0.4183,-0.4181,-0.4179,0,-0.4934,-0.4873,-0.4753,-0.4689,-0.4661,-0.4603,-0.4534,-0.4477,-0.4419,-0.44,-0.4352,-0.434,-0.4264,-0.4299,-0.4194,-0.4238,-0.4202,-0.4179,-0.4175,-0.4165,-0.4204,-0.4138,-0.4022,-0.4009,-0.4158,-0.416,-0.4162,0,-0.4873,-0.4762,-0.4676,-0.4645,-0.4568,-0.4528,-0.4494,-0.4438,-0.4395,-0.4335,-0.4308,-0.4239,-0.4202,-0.4149,-0.412,-0.4147,-0.4018,-0.4049,-0.4001,-0.4002,-0.3973,-0.3975,-0.385,-0.395,-0.395,-0.3951,-0.3951,0,-0.4768,-0.4695,-0.4648,-0.4595,-0.4514,-0.4486,-0.4406,-0.4373,-0.4323,-0.4264,-0.4253,-0.4198,-0.4163,-0.4103,-0.4079,-0.3997,-0.398,-0.3963,-0.3958,-0.3964,-0.3966,-0.394,-0.3945,-0.3947,-0.3948,-0.3948,-0.3949,0,-0.4686,-0.4652,-0.4558,-0.4493,-0.4476,-0.4418,-0.4363,-0.4312,-0.4283,-0.4209,-0.419,-0.4143,-0.4073,-0.4038,-0.395,-0.3935,-0.3842,-0.384,-0.3862,-0.3859,-0.3813,-0.3818,-0.3666,-0.3645,-0.3759,-0.3758,-0.3757,0,-0.4621,-0.4565,-0.4495,-0.4455,-0.442,-0.4356,-0.4313,-0.4284,-0.424,-0.4171,-0.4128,-0.4057,-0.3999,-0.3886,-0.3845,-0.3778,-0.3775,-0.3727,-0.3765,-0.3774,-0.3775,-0.3779,-0.3774,-0.3719,-0.3718,-0.3717,-0.3717,0,-0.4509,-0.4495,-0.4434,-0.4367,-0.4317,-0.4263,-0.421,-0.4178,-0.4141,-0.4092,-0.402,-0.3975,-0.3886,-0.3816,-0.3747,-0.3713,-0.3708,-0.3705,-0.3691,-0.3696,-0.3711,-0.3703,-0.3843,-0.3708,-0.3709,-0.371,-0.371,-0.3711,-0.4433,-0.4383,-0.4327,-0.426,-0.4218,-0.4169,-0.4118,-0.4084,-0.4023,-0.3949,-0.3936,-0.386,-0.3804,-0.3711,-0.3674,-0.3615,-0.3626,-0.3604,-0.3599,-0.3594,-0.3592,-0.3721,-0.3602,-0.3602,-0.3603,-0.3603,-0.3603,0,-0.4321,-0.4285,-0.4224,-0.4151,-0.4098,-0.41,-0.4042,-0.3998,-0.3932,-0.388,-0.3824,-0.3742,-0.3675,-0.363,-0.3562,-0.3523,-0.352,-0.3506,-0.3509,-0.3501,-0.3586,-0.3605,-0.351,-0.351,-0.351,-0.351,-0.351,-0.351,-0.4256,-0.4173,-0.4153,-0.4049,-0.4014,-0.394,-0.3907,-0.3862,-0.3822,-0.3731,-0.3675,-0.3647,-0.3598,-0.3527,-0.3466,-0.3454,-0.343,-0.3416,-0.3405,-0.3485,-0.3495,-0.3504,-0.3522,-0.3411,-0.3411,-0.3326,-0.3325,-0.3324]},{"header":{"parameterUnit":"m.s-1","parameterCategory":1,"la1":30.2991,"la2":30.254,"lo1":-89.0895,"lo2":-89.0444,"dy":0.0017,"dx":0.0017,"nx":28,"ny":28,"refTime":"2023-08-22T03:00:00:Z","depth":0,"parameterNumber":3,"parameterNumberName":"V-component_of_WINDS"},"data":[0,0,0,0,0,0,0,0,0,0,0,0,0,0,0,0,0,0,0,0,0,0,0,0,0,0,0,0,0,0,0,0,0,0,0,0,0,0,0,0,0,0,0,0,0,0,0,0,0,0,0,0,0,0,0,0,0,0,0.8932,0.8932,0,0.8942,0.8942,0.8942,0.8938,0.8937,0.8937,0.8937,0.8945,0.8945,0.8946,0,0,0,0,0,0,0,0,0,0,0,0,0,0.8904,0.8904,0.8932,0.8932,0.8932,0.8942,0.8942,0.8942,0.8938,0.8937,0.8937,0.8937,0.8945,0.8945,0.8946,0,0,0,0,0,0,0,0,0,0,0,0,0,0.8915,0.8904,0.8932,0.8931,0.8931,0.8942,0.8942,0.8942,0.8938,0.8937,0.8937,0.8937,0.8945,0.8945,0.8946,0.8958,0,0,0.8948,0.8948,0,0,0,0,0,0,0,0,0.8914,0.8916,0.8931,0.8931,0.8931,0.8938,0.8935,0.8948,0.8938,0.8935,0.8937,0.8936,0.8943,0.8944,0.8946,0.8958,0.8958,0.8948,0.8948,0.8949,0.8949,0,0,0,0,0,0,0,0.8914,0.8916,0.8936,0.8931,0.8931,0.8929,0.893,0.8938,0.8941,0.8935,0.8935,0.8936,0.8943,0.8946,0.8946,0.8959,0.8948,0.8949,0.8949,0.8949,0.8977,0.8977,0,0,0,0,0,0,0.8913,0.8915,0.8936,0.8936,0.8922,0.8929,0.8931,0.8936,0.8941,0.8941,0.8937,0.8936,0.8945,0.8946,0.8947,0.8959,0.8949,0.8949,0.895,0.8976,0.8977,0.8977,0,0,0,0,0,0,0.8913,0.8915,0.8935,0.8925,0.8928,0.893,0.8937,0.8937,0.894,0.8942,0.8942,0.8939,0.8944,0.8946,0.8954,0.8959,0.895,0.895,0.8976,0.8977,0.8977,0.8984,0,0,0,0,0,0,0.8912,0.8915,0.8921,0.8926,0.8928,0.8944,0.8937,0.8937,0.8941,0.894,0.8944,0.8945,0.8944,0.8953,0.8955,0.896,0.8951,0.8976,0.8976,0.8977,0.8984,0.8985,0.8986,0,0,0,0,0,0.8911,0.8923,0.8921,0.8924,0.8936,0.8945,0.8946,0.8946,0.8942,0.8946,0.8947,0.8945,0.8958,0.8954,0.8956,0.8961,0.8975,0.8976,0.8977,0.8983,0.8985,0.8986,0,0,0,0,0,0,0.8918,0.8923,0.8922,0.8936,0.894,0.8944,0.895,0.8948,0.8953,0.8952,0.8951,0.8951,0.896,0.8961,0.8957,0.8971,0.8966,0.8967,0.897,0.8972,0.8973,0.8972,0.8951,0,0,0,0,0,0.8922,0.8929,0.8933,0.8945,0.8947,0.8948,0.8952,0.8951,0.8955,0.8956,0.8958,0.8961,0.8965,0.8969,0.8973,0.8984,0.8983,0.8988,0.8989,0.899,0.8991,0.8993,0.8995,0.898,0.898,0.898,0,0,0.8929,0.8932,0.8937,0.8946,0.8949,0.8955,0.895,0.8957,0.8961,0.8957,0.8965,0.8966,0.8969,0.8978,0.8982,0.8979,0.8994,0.8991,0.8991,0.8992,0.8994,0.8996,0.8997,0.898,0.898,0.898,0,0,0.8944,0.8949,0.8958,0.896,0.8965,0.8965,0.8967,0.8971,0.8971,0.8979,0.8975,0.8979,0.8988,0.8989,0.8991,0.9004,0.9,0.9005,0.9011,0.9014,0.9015,0.9016,0.9019,0.902,0.9006,0.9006,0.9006,0,0.8952,0.8963,0.8962,0.8969,0.8972,0.8969,0.8976,0.8979,0.8984,0.8986,0.8983,0.8992,0.8994,0.9001,0.9004,0.9006,0.9007,0.9005,0.9015,0.9016,0.9017,0.902,0.9021,0.9006,0.9006,0.9006,0.9006,0,0.897,0.8977,0.8984,0.8989,0.8993,0.9,0.8999,0.9003,0.9001,0.9001,0.9007,0.9009,0.9012,0.9014,0.9013,0.9021,0.9019,0.9016,0.9011,0.9019,0.9021,0.9022,0.9007,0.9007,0.9007,0.9007,0,0,0.8992,0.8995,0.8998,0.8999,0.9002,0.9007,0.9012,0.9016,0.9018,0.9021,0.9025,0.9031,0.9027,0.9029,0.9027,0.903,0.9037,0.9026,0.9026,0.9027,0.9043,0.9045,0.9046,0.9035,0.9035,0.9035,0.9043,0,0.9007,0.9018,0.9017,0.9027,0.9032,0.9027,0.9032,0.9033,0.9033,0.9035,0.9034,0.9038,0.9034,0.9035,0.9037,0.9036,0.904,0.9035,0.9036,0.9037,0.9036,0.9048,0.905,0.9058,0.9044,0.9044,0.9044,0,0.9025,0.9029,0.9039,0.9039,0.9041,0.9046,0.9047,0.9051,0.9051,0.905,0.9051,0.9048,0.9052,0.9047,0.9051,0.9047,0.9047,0.9046,0.9047,0.9046,0.9041,0.9047,0.906,0.9061,0.9046,0.9045,0.9045,0,0.9038,0.9045,0.9051,0.9052,0.9053,0.9056,0.9056,0.9056,0.9058,0.9059,0.9059,0.9061,0.9061,0.9061,0.9058,0.9055,0.9062,0.9057,0.906,0.906,0.9061,0.9061,0.9074,0.9063,0.9063,0.9063,0.9063,0,0.9053,0.9059,0.9056,0.9061,0.9066,0.9064,0.9069,0.9069,0.9068,0.9071,0.9067,0.9069,0.9065,0.9066,0.9063,0.9065,0.9066,0.9064,0.9063,0.9064,0.9064,0.9064,0.9063,0.9063,0.9063,0.9063,0.9063,0,0.9068,0.9067,0.9073,0.9073,0.9073,0.9077,0.9075,0.9078,0.9076,0.9079,0.908,0.9077,0.9078,0.9074,0.9075,0.9073,0.9076,0.9075,0.9076,0.9075,0.9078,0.9077,0.909,0.9091,0.9081,0.9081,0.9081,0,0.9078,0.9082,0.9082,0.9083,0.9083,0.9086,0.9087,0.9084,0.9085,0.9084,0.9086,0.9087,0.9087,0.9088,0.9085,0.9085,0.9083,0.9087,0.9083,0.9083,0.9081,0.9081,0.908,0.9088,0.9088,0.9089,0.9089,0,0.9094,0.9093,0.9095,0.9096,0.9097,0.9098,0.9098,0.9099,0.9095,0.9096,0.9097,0.9097,0.9097,0.9097,0.9096,0.9094,0.909,0.909,0.909,0.9091,0.9091,0.909,0.9078,0.909,0.909,0.909,0.9089,0.9089,0.9106,0.9108,0.9108,0.911,0.9109,0.9109,0.9111,0.9109,0.911,0.911,0.9107,0.9108,0.9106,0.9104,0.9102,0.9102,0.91,0.9101,0.9101,0.9101,0.9101,0.9092,0.9102,0.9102,0.9102,0.9102,0.9102,0,0.912,0.9119,0.9121,0.9121,0.9122,0.9118,0.9118,0.9118,0.9119,0.9118,0.9118,0.9117,0.9117,0.9113,0.9112,0.9112,0.911,0.9111,0.9111,0.911,0.9104,0.9103,0.9113,0.9113,0.9113,0.9113,0.9113,0.9113,0.9128,0.9132,0.913,0.9133,0.9131,0.9132,0.9132,0.9131,0.913,0.913,0.9129,0.9127,0.9124,0.9122,0.9121,0.9119,0.9119,0.9121,0.9119,0.9112,0.9111,0.911,0.9109,0.9121,0.9121,0.9125,0.9125,0.9126]}]]